FW3855 Weather Reports


time (UTC)temp
F
wind
direction
speed
knots
gust
knots
rain 1hr
in
rain 24hr
in
rain mn
in
humidity
%
barometer
mb
20260508060215 64 179 0.9 2.6 0.00 0.00 0.00 3 1016.6
20260508055715 65 187 0.0 1.7 0.00 0.00 0.00 3 1016.5
20260508055217 66 197 0.9 1.7 0.00 0.00 0.00 2 1016.6
20260508054215 68 170 0.9 2.6 0.00 0.00 0.00 2 1016.5
20260508053717 69 90 0.9 4.3 0.00 0.00 0.00 1 1016.5
20260508053211 69 201 0.9 4.3 0.00 0.00 0.00 1 1016.4
20260508052710 69 192 0.9 2.6 0.00 0.00 0.00 1 1016.4
20260508052211 70 212 0.9 3.5 0.00 0.00 0.00 1 1016.4
20260508051715 71 211 1.7 3.5 0.00 0.00 0.00 1 1016.5
20260508051209 71 214 2.6 5.2 0.00 0.00 0.00 1 1016.6
20260508050711 72 211 2.6 6.1 0.00 0.00 0.00 1 1016.5
20260508050206 72 245 3.5 6.1 0.00 0.00 0.00 1 1016.6
20260508045705 72 203 3.5 5.2 0.00 0.00 0.00 1 1016.7
20260508045159 73 149 2.6 5.2 0.00 0.00 0.00 1 1016.7
20260508044655 72 209 1.7 5.2 0.00 0.00 0.00 1 1016.7
20260508044148 72 243 0.9 3.5 0.00 0.00 0.00 1 1016.7
20260508043652 72 230 0.9 2.6 0.00 0.00 0.00 1 1016.7
20260508043149 73 207 1.7 3.5 0.00 0.00 0.00 1 1016.6
20260508042145 73 303 1.7 5.2 0.00 0.00 0.00 1 1016.7
20260508041646 74 303 2.6 5.2 0.00 0.00 0.00 1 1016.7
20260508041146 74 242 1.7 5.2 0.00 0.00 0.00 1 1016.6
20260508040646 73 236 0.9 4.3 0.00 0.00 0.00 1 1016.6
20260508040145 73 296 0.9 4.3 0.00 0.00 0.00 1 1016.6
20260508035644 73 234 0.9 5.2 0.00 0.00 0.00 1 1016.5
20260508035144 74 272 1.7 5.2 0.00 0.00 0.00 1 1016.5
20260508034643 74 295 1.7 4.3 0.00 0.00 0.00 1 1016.5
20260508033644 74 293 2.6 7.0 0.00 0.00 0.00 1 1016.5
20260508033141 74 294 2.6 7.0 0.00 0.00 0.00 1 1016.2
20260508032641 73 306 1.7 4.3 0.00 0.00 0.00 1 1016.2
20260508032141 73 267 1.7 7.0 0.00 0.00 0.00 1 1016.2
20260508031636 73 291 1.7 7.0 0.00 0.00 0.00 1 1016.2
20260508030117 74 284 1.7 7.0 0.00 0.00 0.00 1 1016.1
20260508025611 74 293 1.7 7.0 0.00 0.00 0.00 1 1016.1
20260508024559 74 296 0.9 4.3 0.00 0.00 0.00 2 1015.9
20260508024054 74 302 0.9 5.2 0.00 0.00 0.00 2 1015.8
20260508023548 75 107 1.7 5.2 0.00 0.00 0.00 2 1015.8
20260508023041 75 295 2.6 7.0 0.00 0.00 0.00 2 1015.7
20260508022536 76 301 2.6 7.8 0.00 0.00 0.00 2 1015.6
20260508022032 76 257 3.5 7.8 0.00 0.00 0.00 2 1015.6
20260508021020 76 291 1.7 5.2 0.00 0.00 0.00 2 1015.3
20260508015459 77 309 1.7 6.1 0.00 0.00 0.00 2 1015.2
20260508014954 78 285 1.7 6.1 0.00 0.00 0.00 2 1015.2
20260508014447 80 317 2.6 6.1 0.00 0.00 0.00 1 1015.1
20260508013942 81 281 2.6 6.1 0.00 0.00 0.00 1 1015.1
20260508013436 81 323 2.6 6.1 0.00 0.00 0.00 1 1015.0
20260508012423 81 308 3.5 8.7 0.00 0.00 0.00 1 1015.0
20260508011917 81 328 3.5 8.7 0.00 0.00 0.00 1 1015.0
20260508011412 82 343 2.6 6.1 0.00 0.00 0.00 1 1015.1
20260508010906 82 290 2.6 6.1 0.00 0.00 0.00 1 1015.0
20260508010402 82 299 3.5 7.0 0.00 0.00 0.00 1 1015.0
20260508005853 82 331 3.5 7.8 0.00 0.00 0.00 1 1015.0
20260508005347 82 334 3.5 7.0 0.00 0.00 0.00 1 1015.0
20260508004844 82 310 2.6 7.0 0.00 0.00 0.00 1 1014.9
20260508004336 82 329 3.5 7.0 0.00 0.00 0.00 1 1014.9
20260508003829 82 319 3.5 8.7 0.00 0.00 0.00 1 1014.9
20260508003326 82 283 5.2 13.9 0.00 0.00 0.00 1 1014.9
20260508002820 83 281 3.5 13.9 0.00 0.00 0.00 1 1014.9
20260508002311 83 311 2.6 8.7 0.00 0.00 0.00 1 1014.9
20260508001808 84 294 3.5 8.7 0.00 0.00 0.00 1 1015.0
20260508000312 83 309 1.7 7.0 0.00 0.00 0.00 1 1015.0
20260507235809 84 254 3.5 8.7 0.00 0.00 0.00 1 1015.0
20260507234809 83 282 3.5 9.6 0.00 0.00 0.00 1 1015.3
20260507233807 83 123 2.6 9.6 0.00 0.00 0.00 1 1015.2
20260507233306 83 259 2.6 9.6 0.00 0.00 0.00 1 1015.2
20260507232809 83 290 1.7 5.2 0.00 0.00 0.00 1 1015.3
20260507231808 83 300 3.5 9.6 0.00 0.00 0.00 1 1015.4
20260507231306 83 359 1.7 9.6 0.00 0.00 0.00 1 1015.4
20260507230807 83 295 0.9 7.8 0.00 0.00 0.00 1 1015.3
20260507230309 82 73 3.5 8.7 0.00 0.00 0.00 1 1015.4
20260507225306 82 314 3.5 9.6 0.00 0.00 0.00 1 1015.6
20260507224801 81 291 3.5 7.8 0.00 0.00 0.00 1 1015.6
20260507223746 82 239 3.5 7.8 0.00 0.00 0.00 1 1015.7
20260507223240 83 287 2.6 8.7 0.00 0.00 0.00 1 1015.7
20260507222737 83 257 3.5 8.7 0.00 0.00 0.00 1 1015.8
20260507221726 83 307 3.5 8.7 0.00 0.00 0.00 1 1016.0
20260507221217 82 268 4.3 9.6 0.00 0.00 0.00 1 1016.0
20260507220711 82 308 3.5 9.6 0.00 0.00 0.00 1 1016.0
20260507215701 82 352 3.5 6.1 0.00 0.00 0.00 1 1016.1
20260507214648 82 32 3.5 9.6 0.00 0.00 0.00 1 1016.2
20260507214153 82 73 2.6 7.0 0.00 0.00 0.00 1 1016.4
20260507213648 82 304 3.5 7.8 0.00 0.00 0.00 1 1016.4
20260507213147 82 310 4.3 8.7 0.00 0.00 0.00 1 1016.6
20260507212653 81 305 3.5 8.7 0.00 0.00 0.00 1 1016.6
20260507212148 81 348 3.5 8.7 0.00 0.00 0.00 1 1016.7
20260507211651 81 326 3.5 9.6 0.00 0.00 0.00 1 1016.8
20260507211154 81 283 4.3 9.6 0.00 0.00 0.00 1 1016.8
20260507210651 82 344 3.5 8.7 0.00 0.00 0.00 1 1016.9
20260507210154 82 295 1.7 8.7 0.00 0.00 0.00 1 1017.0
20260507205655 83 77 0.9 6.1 0.00 0.00 0.00 1 1017.0
20260507205152 81 311 2.6 8.7 0.00 0.00 0.00 1 1017.0
20260507203149 80 342 4.3 10.4 0.00 0.00 0.00 1 1017.6
20260507202648 80 292 3.5 10.4 0.00 0.00 0.00 1 1017.5
20260507202148 80 336 3.5 8.7 0.00 0.00 0.00 1 1017.5
20260507201650 80 300 3.5 8.7 0.00 0.00 0.00 1 1017.5
20260507201150 80 33 4.3 9.6 0.00 0.00 0.00 1 1017.6
20260507200148 80 5 2.6 7.0 0.00 0.00 0.00 1 1017.7
20260507195649 80 86 1.7 6.1 0.00 0.00 0.00 1 1017.8
20260507195148 80 31 1.7 6.1 0.00 0.00 0.00 1 1018.0
20260507194652 80 50 1.7 5.2 0.00 0.00 0.00 2 1018.0
20260507194148 79 231 2.6 9.6 0.00 0.00 0.00 2 1018.0
20260507193647 78 298 3.5 9.6 0.00 0.00 0.00 2 1018.2
20260507193146 78 271 3.5 8.7 0.00 0.00 0.00 3 1018.2
20260507192146 78 56 3.5 9.6 0.00 0.00 0.00 2 1018.3
20260507191646 79 319 2.6 9.6 0.00 0.00 0.00 2 1018.4
20260507191147 79 127 2.6 7.8 0.00 0.00 0.00 2 1018.4
20260507190646 78 340 2.6 7.8 0.00 0.00 0.00 2 1018.5
20260507190146 78 42 2.6 7.0 0.00 0.00 0.00 2 1018.6
20260507185645 78 316 2.6 7.0 0.00 0.00 0.00 3 1018.8
20260507185147 77 298 3.5 10.4 0.00 0.00 0.00 3 1018.8
20260507184645 77 304 3.5 11.3 0.00 0.00 0.00 3 1018.8
20260507184145 78 335 4.3 11.3 0.00 0.00 0.00 3 1018.8
20260507183646 78 326 2.6 7.8 0.00 0.00 0.00 3 1018.8
20260507183149 78 270 3.5 6.1 0.00 0.00 0.00 4 1018.8
20260507182643 77 33 3.5 13.9 0.00 0.00 0.00 5 1018.8
20260507181632 76 84 2.6 7.0 0.00 0.00 0.00 5 1018.9
20260507181129 76 77 2.6 7.0 0.00 0.00 0.00 5 1018.9
20260507180619 77 132 2.6 9.6 0.00 0.00 0.00 5 1019.0
20260507180115 76 91 2.6 9.6 0.00 0.00 0.00 5 1019.0
20260507175608 76 139 1.7 6.1 0.00 0.00 0.00 5 1019.1
20260507175101 76 80 1.7 6.1 0.00 0.00 0.00 4 1019.2
20260507174554 76 237 1.7 5.2 0.00 0.00 0.00 5 1019.2
20260507174047 75 231 2.6 6.1 0.00 0.00 0.00 6 1019.3
20260507173546 75 88 2.6 6.1 0.00 0.00 0.00 6 1019.3
20260507173046 75 41 2.6 6.1 0.00 0.00 0.00 6 1019.2
20260507172546 74 101 3.5 7.8 0.00 0.00 0.00 7 1019.2
20260507172047 74 11 3.5 7.8 0.00 0.00 0.00 6 1019.3
20260507171545 74 354 2.6 7.0 0.00 0.00 0.00 8 1019.2
20260507170550 74 27 2.6 6.1 0.00 0.00 0.00 9 1019.3
20260507165546 73 293 1.7 4.3 0.00 0.00 0.00 10 1019.4
20260507165049 73 19 1.7 4.3 0.00 0.00 0.00 10 1019.4
20260507164546 73 309 0.9 4.3 0.00 0.00 0.00 10 1019.4
20260507164047 72 349 0.9 4.3 0.00 0.00 0.00 10 1019.4
20260507163543 71 342 2.6 7.0 0.00 0.00 0.00 11 1019.4
20260507163042 71 320 2.6 7.0 0.00 0.00 0.00 11 1019.6
20260507162541 71 8 1.7 3.5 0.00 0.00 0.00 11 1019.4
20260507162043 70 113 1.7 4.3 0.00 0.00 0.00 11 1019.7
20260507161541 70 13 2.6 4.3 0.00 0.00 0.00 11 1019.8
20260507161036 70 22 2.6 6.1 0.00 0.00 0.00 11 1019.7
20260507160531 70 347 1.7 6.1 0.00 0.00 0.00 11 1019.8
20260507160022 70 32 1.7 4.3 0.00 0.00 0.00 11 1019.8
20260507155514 70 337 1.7 5.2 0.00 0.00 0.00 11 1019.9
20260507155011 69 37 1.7 5.2 0.00 0.00 0.00 12 1019.9
20260507154509 69 73 1.7 7.0 0.00 0.00 0.00 12 1020.0
20260507153959 68 79 2.6 7.0 0.00 0.00 0.00 12 1020.0
20260507152947 68 98 2.6 6.1 0.00 0.00 0.00 11 1020.0
20260507151935 67 105 1.7 6.1 0.00 0.00 0.00 10 1020.0
20260507151429 67 77 1.7 5.2 0.00 0.00 0.00 9 1020.0
20260507150923 67 320 1.7 5.2 0.00 0.00 0.00 10 1020.0
20260507150417 67 352 0.9 4.3 0.00 0.00 0.00 10 1020.1
20260507145910 67 84 0.9 3.5 0.00 0.00 0.00 9 1020.1
20260507145405 66 326 0.9 5.2 0.00 0.00 0.00 9 1020.1
20260507144859 66 18 0.9 5.2 0.00 0.00 0.00 9 1020.1
20260507144353 66 16 0.9 3.5 0.00 0.00 0.00 9 1020.1
20260507143846 65 59 0.0 1.7 0.00 0.00 0.00 9 1020.1
20260507142835 64 94 0.9 5.2 0.00 0.00 0.00 10 1020.2
20260507142329 64 172 0.9 3.5 0.00 0.00 0.00 10 1020.1
20260507141822 64 70 0.9 2.6 0.00 0.00 0.00 10 1020.1
20260507141316 64 89 0.9 2.6 0.00 0.00 0.00 10 1020.1
20260507140811 64 88 0.0 1.7 0.00 0.00 0.00 10 1020.1
20260507140304 63 97 0.0 2.6 0.00 0.00 0.00 11 1020.0
20260507135252 62 89 0.9 4.3 0.00 0.00 0.00 11 1020.1
20260507134746 62 103 0.0 3.5 0.00 0.00 0.00 11 1020.0
20260507133735 61 109 0.0 0.9 0.00 0.00 0.00 11 1019.9
20260507133229 60 174 0.0 0.9 0.00 0.00 0.00 12 1019.9
20260507132722 59 160 0.0 1.7 0.00 0.00 0.00 12 1019.9
20260507132218 58 95 0.0 1.7 0.00 0.00 0.00 13 1019.8
20260507131712 56 205 0.0 0.9 0.00 0.00 0.00 15 1019.7
20260507131204 55 176 0.0 0.9 0.00 0.00 0.00 15 1019.6
20260507130154 55 176 0.0 1.7 0.00 0.00 0.00 15 1019.6
20260507125647 54 177 0.0 0.9 0.00 0.00 0.00 15 1019.6
20260507125141 53 141 0.0 1.7 0.00 0.00 0.00 16 1019.4
20260507124130 52 153 0.9 2.6 0.00 0.00 0.00 17 1019.4
20260507123623 50 116 0.0 2.6 0.00 0.00 0.00 18 1019.4
20260507123119 50 206 0.0 0.9 0.00 0.00 0.00 18 1019.4
20260507122611 50 194 0.0 0.9 0.00 0.00 0.00 18 1019.3
20260507121052 51 204 0.0 0.9 0.00 0.00 0.00 18 1019.4
20260507120546 51 207 0.0 0.9 0.00 0.00 0.00 18 1019.4
20260507120044 50 215 0.0 1.7 0.00 0.00 0.00 19 1019.3
20260507115541 50 215 0.0 1.7 0.00 0.00 0.00 19 1019.4
20260507114537 50 202 0.0 0.9 0.00 0.00 0.00 19 1019.4
20260507114045 51 183 0.0 0.9 0.00 0.00 0.00 18 1019.4
20260507113536 51 163 0.0 0.9 0.00 0.00 0.00 18 1019.3
20260507112535 52 120 0.0 1.7 0.00 0.00 0.00 17 1019.3
20260507111029 53 101 0.9 2.6 0.00 0.00 0.00 16 1019.3
20260507105025 54 162 0.9 1.7 0.00 0.00 0.00 16 1019.2
20260507104527 56 161 0.9 1.7 0.00 0.00 0.00 15 1019.3
20260507104029 57 174 0.9 1.7 0.00 0.00 0.00 15 1019.3
20260507103522 57 186 0.9 2.6 0.00 0.00 0.00 14 1019.4
20260507103020 57 169 1.7 2.6 0.00 0.00 0.00 14 1019.4
20260507102021 58 160 0.9 5.2 0.00 0.00 0.00 14 1019.4
20260507101522 58 169 0.9 5.2 0.00 0.00 0.00 13 1019.6
20260507101021 58 141 0.9 2.6 0.00 0.00 0.00 13 1019.6
20260507100522 58 157 0.9 2.6 0.00 0.00 0.00 13 1019.4
20260507100022 57 193 0.0 2.6 0.00 0.00 0.00 13 1019.4
20260507095523 57 176 0.0 1.7 0.00 0.00 0.00 13 1019.4
20260507094517 59 158 0.9 1.7 0.00 0.00 0.00 12 1019.4
20260507094017 59 192 0.9 1.7 0.00 0.00 0.00 12 1019.3
20260507093517 59 179 0.9 1.7 0.00 0.00 0.00 12 1019.2
20260507093017 59 184 0.9 2.6 0.00 0.00 0.00 12 1019.3
20260507092517 60 169 0.9 2.6 0.00 0.00 0.00 13 1019.2
20260507092018 60 195 1.7 2.6 0.00 0.00 0.00 12 1019.3
20260507091517 60 167 0.9 2.6 0.00 0.00 0.00 13 1019.3
20260507091018 59 162 0.9 2.6 0.00 0.00 0.00 14 1019.2
20260507085516 59 155 0.9 2.6 0.00 0.00 0.00 12 1019.3
20260507085018 58 162 0.9 1.7 0.00 0.00 0.00 13 1019.3
20260507084519 57 172 0.0 2.6 0.00 0.00 0.00 16 1019.3
20260507084017 58 171 0.9 2.6 0.00 0.00 0.00 16 1019.4
20260507083518 57 174 0.9 2.6 0.00 0.00 0.00 17 1019.4
20260507083016 57 170 0.9 2.6 0.00 0.00 0.00 18 1019.4
20260507082516 56 172 0.9 2.6 0.00 0.00 0.00 17 1019.4
20260507081515 57 179 0.9 1.7 0.00 0.00 0.00 16 1019.3
20260507081013 56 176 0.9 1.7 0.00 0.00 0.00 16 1019.3
20260507080515 56 205 0.0 0.9 0.00 0.00 0.00 17 1019.4
20260507075515 57 174 0.9 1.7 0.00 0.00 0.00 16 1019.2
20260507075008 57 180 0.0 1.7 0.00 0.00 0.00 16 1019.3
20260507074508 58 173 0.0 0.9 0.00 0.00 0.00 16 1019.3
20260507074006 58 169 0.0 0.9 0.00 0.00 0.00 16 1019.3
20260507073509 58 167 0.0 1.7 0.00 0.00 0.00 16 1019.2
20260507072503 58 169 0.9 1.7 0.00 0.00 0.00 17 1019.2
20260507072007 58 178 0.9 1.7 0.00 0.00 0.00 17 1019.2
20260507071501 58 189 0.9 1.7 0.00 0.00 0.00 17 1019.2
20260507070455 58 194 0.9 1.7 0.00 0.00 0.00 18 1019.2
20260507065954 59 195 0.0 1.7 0.00 0.00 0.00 18 1019.2
20260507065450 59 193 0.0 1.7 0.00 0.00 0.00 18 1019.2
20260507064954 60 179 0.0 0.0 0.00 0.00 0.00 17 1019.2
20260507064447 61 179 0.0 0.0 0.00 0.00 0.00 17 1019.1
20260507063946 62 164 0.0 0.0 0.00 0.00 0.00 16 1019.0
20260507062947 64 257 0.0 2.6 0.00 0.00 0.00 16 1019.0
20260507061948 63 275 0.0 1.7 0.00 0.00 0.00 18 1018.8
20260507061446 63 235 0.0 3.5 0.00 0.00 0.00 19 1018.8
20260507060947 64 276 0.9 3.5 0.00 0.00 0.00 19 1018.8
20260507060446 63 249 0.9 3.5 0.00 0.00 0.00 19 1018.8